Temperature
8 8 7 7 7 7 7 7 7 7 7 7 7 7 7 7 7 7 7 7 7 7 7 7 7 7 7 7 7 7 6 6 6 6 6 6 7 7 7 6 6 6 6
8 7 7 7 7 7 7 7 7 7 7 7 6 6 6 7 7 7 7 6 7 7 7 6 6 6 6 6 6 6 6 6 6 6 6 6 6 6 6 6 6 5 5
7 7 7 7 7 7 7 6 7 6 6 6 6 6 6 6 6 6 6 6 6 6 6 6 6 6 6 6 6 6 6 5 5 5 6 6 5 5 5 5 5 5 5
7 7 7 7 7 7 6 6 6 6 6 6 6 6 6 6 6 6 6 6 6 6 6 6 5 5 5 5 5 5 5 5 5 5 5 5 5 4 4 4 4 4 5
7 7 7 6 6 6 6 6 6 6 6 6 6 6 6 6 6 6 6 5 5 5 5 5 5 5 5 5 5 5 5 5 5 4 4 4 4 4 3 3 3 4 4
7 6 6 6 6 6 6 6 6 6 6 6 6 6 6 6 5 5 5 5 5 5 5 5 5 5 5 5 4 4 4 4 4 4 3 3 3 3 3 2 2 2 2
6 6 6 6 6 6 6 6 6 6 5 5 5 5 5 5 5 5 5 5 5 5 5 4 4 4 4 4 4 4 4 4 3 3 3 3 3 2 2 2 2 1 1
6 6 6 5 5 6 5 6 6 5 5 5 5 5 5 5 5 5 4 4 4 4 4 4 4 4 4 4 4 3 3 3 3 3 2 2 2 1 1 1 1 1 1
5 5 5 5 5 5 5 5 5 5 5 5 5 5 5 5 4 4 4 4 4 4 4 4 3 3 3 3 3 3 3 3 3 2 2 2 1 1 1 1 0 0 0
5 5 5 5 5 5 5 5 5 4 5 5 4 4 4 4 4 4 3 3 3 3 3 3 3 3 3 2 2 2 2 2 2 2 2 1 1 1 1 0 -0 -1 -1
4 4 5 5 4 4 4 4 4 4 4 4 4 4 4 4 4 3 3 3 3 3 2 3 3 2 2 2 2 2 2 1 1 1 1 1 1 1 0 0 -0 -1 -1
4 4 4 4 4 4 4 4 4 4 3 3 3 3 3 3 3 3 3 2 2 2 2 2 2 2 2 1 1 1 1 1 1 1 0 0 0 0 -0 -0 -0 -1 -1
4 4 4 4 4 4 3 3 3 3 3 3 3 3 3 3 3 3 2 2 2 2 2 2 1 1 1 1 1 1 0 0 0 -0 -0 -0 -0 -1 -1 -1 -1 -1 -1
3 3 3 3 3 3 3 3 3 3 3 3 3 3 3 3 2 2 2 2 2 1 1 1 1 1 0 0 0 0 0 -0 -1 -1 -1 -1 -1 -1 -1 -2 -2 -2 -2
3 3 3 3 3 3 3 3 3 3 3 3 3 3 2 2 2 2 2 1 1 1 1 1 0 0 0 0 -0 -0 -0 -1 -1 -1 -1 -2 -2 -2 -2 -2 -2 -3 -3
2 2 2 2 2 2 2 2 2 2 2 2 2 2 2 2 2 1 1 1 1 1 0 0 0 0 -0 -0 -0 -1 -1 -1 -1 -2 -2 -2 -2 -2 -2 -3 -3 -3 -3
2 2 2 2 2 2 2 2 2 2 2 2 2 2 1 1 1 1 1 1 0 0 -0 -0 -0 -0 -0 -1 -1 -1 -1 -1 -2 -2 -2 -2 -3 -3 -3 -3 -3 -4 -4
2 2 2 2 2 2 1 1 1 1 1 1 2 1 1 1 1 1 0 -0 -0 -0 -0 -0 -0 -0 -1 -1 -1 -2 -2 -2 -2 -2 -3 -3 -3 -4 -4 -4 -4 -4 -4
1 1 2 1 1 1 1 1 1 1 1 1 1 1 1 1 0 -0 -0 -0 -0 -0 -0 -0 -0 -1 -1 -1 -2 -2 -2 -2 -3 -3 -3 -3 -4 -4 -4 -4 -4 -4 -5
1 1 1 1 1 1 1 1 1 1 0 0 0 1 0 -0 -0 -0 -0 -0 -0 -0 -1 -1 -1 -1 -1 -2 -2 -2 -3 -3 -3 -3 -3 -4 -4 -4 -4 -4 -5 -5 -5
1 1 1 1 1 1 0 0 0 0 0 0 0 0 0 -0 0 -0 -0 -1 -1 -1 -1 -1 -1 -2 -2 -2 -2 -2 -3 -3 -3 -3 -4 -4 -4 -5 -5 -5 -5 -5 -5
0 0 0 0 0 0 0 0 -0 -0 -0 -0 -0 -0 -1 -1 -1 -1 -1 -1 -1 -1 -1 -1 -2 -2 -2 -2 -2 -3 -3 -3 -3 -4 -4 -4 -5 -5 -5 -5 -5 -5 -5
-0 -0 -0 -0 -0 -0 -0 -0 -1 -1 -1 -1 -1 -1 -1 -1 -1 -1 -1 -1 -2 -2 -2 -2 -2 -2 -2 -2 -3 -3 -3 -3 -4 -4 -4 -5 -5 -5 -5 -5 -5 -6 -6
-1 -1 -1 -1 -1 -1 -1 -1 -1 -1 -1 -1 -1 -1 -1 -1 -1 -1 -2 -2 -2 -2 -2 -2 -2 -2 -2 -3 -3 -3 -3 -4 -4 -4 -5 -5 -5 -5 -6 -6 -6 -6 -6
-1 -1 -1 -1 -1 -1 -1 -1 -1 -1 -1 -1 -1 -1 -1 -2 -2 -2 -2 -2 -2 -2 -2 -2 -2 -3 -3 -3 -3 -3 -3 -4 -4 -4 -5 -5 -5 -6 -6 -6 -6 -6 -6
-1 -1 -1 -1 -1 -1 -1 -1 -1 -1 -1 -1 -1 -1 -2 -2 -2 -2 -2 -3 -3 -3 -3 -3 -3 -3 -3 -3 -3 -4 -4 -4 -4 -5 -5 -5 -5 -6 -6 -6 -6 -6 -7
Wind_Speed
5 5 4 4 5 5 5 5 4 4 4 4 4 4 4 4 3 3 3 3 3 3 2 3 3 2 2 2 2 2 2 2 4 3 2 2 3 3 4 5 7 7 8
5 5 5 5 5 5 5 5 5 5 5 5 4 4 4 4 4 4 4 4 4 4 4 4 4 3 3 2 2 2 2 2 3 4 3 2 3 3 3 4 5 7 8
5 5 5 5 5 6 6 5 5 5 5 5 4 4 4 4 4 4 4 4 4 4 4 4 4 4 3 2 2 2 2 2 2 3 3 3 3 3 3 4 5 4 7
6 6 6 6 6 6 5 5 5 5 5 5 4 4 4 4 4 4 4 4 4 4 4 4 4 4 4 3 2 2 2 1 1 2 3 3 3 3 2 3 5 4 5
6 7 7 7 6 5 5 5 5 5 5 5 5 5 4 4 4 4 4 4 4 3 3 3 4 4 5 4 3 3 2 2 2 2 2 3 3 2 3 3 5 5 6
6 7 7 6 6 6 6 5 5 5 5 5 5 5 5 4 6 7 5 4 4 4 4 3 3 4 5 4 4 3 3 3 3 3 3 3 4 3 3 3 4 5 5
6 6 6 6 6 6 6 6 6 6 6 6 6 5 5 6 8 7 7 4 4 3 4 3 3 3 3 3 3 2 2 3 4 3 3 4 4 3 3 4 4 5 6
6 6 6 6 6 6 6 7 7 6 6 6 6 6 5 7 9 9 8 5 4 4 4 4 4 4 3 4 3 2 2 2 2 2 2 3 2 2 3 4 5 5 6
6 6 6 6 6 6 7 7 6 6 6 6 6 6 6 6 9 9 8 4 4 4 4 4 5 5 6 6 4 3 2 1 1 1 2 2 3 4 3 2 3 4 5
7 7 6 6 6 7 7 7 6 6 6 6 6 6 6 6 9 10 9 4 4 4 4 4 6 6 7 6 4 4 3 2 1 1 1 2 2 3 4 1 2 3 4
6 5 6 6 7 7 6 5 5 5 5 5 5 5 6 7 8 10 10 5 5 4 4 4 4 7 7 6 5 4 4 2 1 1 1 1 1 1 2 2 2 2 4
5 6 6 6 6 5 5 5 5 5 5 5 5 5 4 5 7 9 11 10 7 5 4 4 4 7 6 6 4 4 4 2 1 1 1 1 2 2 2 2 3 4 5
5 6 6 6 6 6 6 6 5 6 6 5 5 6 5 4 6 10 11 10 10 6 4 6 6 6 5 4 4 4 3 2 2 2 2 2 2 2 2 2 3 4 5
6 7 6 6 6 6 6 6 6 6 6 6 6 6 5 5 5 5 6 6 7 6 4 5 6 6 5 4 3 2 2 2 2 2 2 2 2 2 2 2 3 3 4
7 6 6 6 6 6 6 6 7 7 8 8 7 6 6 7 8 10 7 6 5 5 5 3 3 3 3 3 2 2 2 2 2 1 1 1 2 2 2 2 2 3 4
6 6 5 5 5 5 5 5 7 8 9 10 9 7 6 8 9 11 11 10 10 10 6 4 4 4 4 4 3 3 2 2 2 1 1 1 2 3 3 3 3 3 4
7 6 5 5 5 6 6 6 5 5 7 9 10 9 9 9 11 11 11 11 11 10 5 5 5 5 5 4 4 3 3 3 2 2 2 2 2 3 3 3 3 4 4
8 8 7 6 6 6 6 6 6 5 5 4 7 10 11 11 11 11 12 10 7 7 5 5 5 5 4 4 4 3 3 3 2 3 2 2 2 3 3 3 4 4 5
7 6 6 6 6 6 6 6 6 6 6 5 3 5 10 10 11 11 11 6 7 6 6 5 5 5 4 4 4 4 4 4 3 3 3 3 3 3 3 3 4 6 5
7 9 7 5 5 6 6 6 6 6 6 6 6 6 6 6 6 7 7 6 6 6 6 6 5 5 5 5 5 4 4 4 4 3 3 3 3 3 4 4 4 4 4
6 7 9 6 6 6 6 7 6 6 7 7 6 7 10 7 7 8 7 7 7 7 6 6 5 5 5 5 5 5 6 4 4 4 3 3 3 3 3 3 3 4 4
5 5 6 6 6 6 6 6 6 7 7 7 5 6 12 7 6 6 7 7 6 6 5 5 5 5 6 6 6 6 6 5 5 4 4 3 3 3 3 3 3 3 3
5 6 6 6 6 8 7 6 6 6 6 6 6 6 7 6 7 6 7 6 6 5 5 5 6 5 5 5 6 6 6 6 5 5 5 4 3 3 3 3 3 3 3
5 6 7 6 6 6 6 6 6 6 6 6 6 6 6 6 6 7 6 5 5 5 5 6 6 7 8 6 6 7 7 7 7 6 6 5 4 3 2 2 3 3 3
5 6 6 7 6 6 6 6 6 6 6 6 6 6 6 6 6 6 6 5 6 6 6 6 5 7 9 9 7 7 9 9 8 7 6 4 4 3 3 2 2 2 2
6 6 6 6 6 6 7 7 6 6 6 6 6 6 6 6 6 6 6 6 6 6 6 6 6 7 8 9 9 10 10 11 10 9 6 4 4 3 3 2 2 2 2
Wind_Direction
215 220 229 236 234 228 228 231 233 239 241 242 244 238 232 233 231 218 214 217 211 206 203 205 217 208 208 209 205 215 224 224 248 270 279 300 293 290 301 300 298 298 299
218 217 222 231 235 231 231 229 228 235 239 240 240 236 231 225 221 215 212 210 206 201 203 202 212 207 204 205 203 212 223 233 241 265 281 283 282 277 283 291 298 300 298
215 219 225 228 234 237 233 228 226 229 235 237 235 232 231 227 226 229 215 209 209 205 200 197 200 194 201 197 190 202 226 251 247 252 272 283 289 291 300 296 288 288 298
213 218 226 227 231 236 233 227 223 223 228 231 228 224 223 223 224 224 216 212 210 205 198 195 195 192 193 187 192 204 211 227 243 250 270 290 293 298 296 299 304 303 302
216 220 226 228 227 229 227 224 223 223 226 226 228 226 220 217 219 211 207 205 200 197 194 191 186 185 186 187 193 197 198 209 236 254 271 292 290 301 300 304 304 310 303
223 225 225 225 223 225 224 222 221 220 221 222 224 221 219 218 217 214 205 201 194 191 198 194 186 187 191 201 206 207 205 207 218 237 260 267 280 291 305 308 309 313 305
231 231 227 223 225 226 223 220 221 221 220 222 220 209 211 211 209 210 207 193 187 192 195 186 188 184 180 177 187 207 235 243 238 231 240 256 271 280 290 296 297 295 287
237 234 229 225 226 225 222 223 223 221 220 220 218 209 209 213 207 208 206 195 187 196 199 193 186 186 186 176 171 181 210 245 255 248 240 263 284 294 282 281 286 294 291
241 239 234 225 224 224 226 227 223 221 223 219 212 205 208 213 207 203 196 183 193 204 202 194 189 188 191 185 173 184 211 248 274 242 249 263 290 309 315 313 311 309 302
244 237 232 225 222 226 228 226 222 218 218 213 210 203 201 205 204 201 196 191 199 204 199 194 199 197 192 191 188 190 209 226 225 289 279 294 309 318 323 311 285 290 295
246 236 230 224 223 227 227 222 218 214 207 205 207 206 203 203 203 202 199 197 200 199 199 197 196 196 196 200 203 202 213 209 207 226 251 286 322 323 325 318 291 272 277
243 240 233 226 224 223 218 220 215 208 205 204 205 211 211 206 203 206 204 205 201 198 203 197 187 183 192 203 207 208 209 212 192 205 254 277 289 294 294 288 287 279 263
243 242 236 228 220 212 212 215 215 210 209 209 206 213 213 203 201 206 206 207 206 206 202 194 184 184 188 196 205 207 202 192 188 217 251 271 273 272 283 293 293 289 284
248 245 235 226 222 214 211 209 212 213 210 209 210 212 209 200 198 195 196 201 203 207 204 192 187 188 190 186 190 199 190 192 203 225 247 270 285 287 288 293 301 305 300
250 245 237 224 218 217 214 214 215 218 212 210 212 205 201 208 207 195 189 190 184 185 171 169 176 177 183 186 187 189 183 188 211 219 231 264 281 288 293 298 298 300 297
249 243 234 225 220 217 216 227 225 221 218 215 212 207 212 206 193 194 194 192 187 182 175 180 190 190 192 193 194 196 198 203 203 207 229 251 279 289 296 300 299 293 294
241 238 233 226 221 217 212 215 229 232 221 218 216 213 208 199 195 192 190 187 188 186 188 191 196 196 194 193 192 195 203 201 196 205 220 239 262 276 286 292 294 295 296
240 234 228 226 221 217 215 215 214 215 220 227 219 214 209 204 198 193 189 181 192 197 197 198 200 196 193 194 194 195 195 192 199 209 215 228 244 262 275 282 287 292 298
238 231 225 222 219 217 214 211 212 211 213 215 209 208 205 200 198 198 191 195 196 199 199 200 197 194 194 192 192 191 194 200 207 209 213 220 237 253 268 277 285 292 299
237 231 226 222 217 216 211 209 212 210 209 208 209 206 191 185 193 196 200 199 201 201 198 198 197 194 192 191 189 190 196 204 207 213 216 220 231 247 262 271 279 287 294
235 231 224 223 217 216 214 213 211 211 214 214 214 204 194 196 199 197 199 203 204 204 200 197 194 192 191 189 188 192 197 203 206 207 210 220 232 247 259 265 276 283 292
229 228 225 224 221 218 217 215 214 215 216 215 212 204 203 203 202 201 203 206 204 200 194 190 193 193 192 191 191 193 198 202 203 202 209 220 229 240 252 261 274 287 291
228 226 227 224 220 221 221 217 215 215 215 213 205 200 199 202 203 204 205 202 195 192 189 190 193 195 192 189 190 193 198 202 198 195 201 209 218 230 242 259 273 285 293
228 226 225 224 220 217 217 218 217 214 212 211 208 206 205 204 204 203 200 194 191 190 188 190 195 195 189 187 192 196 199 197 191 193 195 201 213 222 233 249 264 276 287
230 226 224 223 221 220 218 218 217 214 214 213 210 207 203 201 200 198 193 190 189 192 192 192 193 193 190 191 193 195 197 196 194 190 189 195 202 205 218 237 254 271 277
230 226 224 223 221 217 215 216 215 213 213 213 210 205 201 200 199 195 190 188 192 194 195 196 194 192 192 195 194 195 197 197 196 192 187 186 190 198 206 226 235 255 271
Height
1464 1463 1463 1462 1462 1462 1461 1461 1461 1461 1461 1461 1461 1461 1461 1462 1462 1463 1463 1464 1464 1465 1466 1466 1467 1468 1469 1469 1470 1471 1471 1471 1470 1469 1469 1469 1468 1467 1466 1465 1464 1463 1461
1460 1460 1459 1458 1458 1457 1457 1457 1457 1457 1457 1457 1457 1457 1457 1458 1458 1459 1459 1459 1460 1460 1461 1462 1462 1463 1464 1465 1465 1466 1466 1466 1466 1464 1464 1464 1463 1462 1461 1460 1459 1458 1456
1456 1456 1455 1454 1454 1453 1453 1453 1453 1453 1453 1453 1453 1453 1453 1453 1454 1454 1455 1455 1456 1456 1457 1458 1458 1459 1459 1460 1461 1461 1462 1462 1461 1460 1459 1459 1458 1457 1456 1455 1454 1453 1451
1452 1451 1450 1450 1449 1449 1449 1448 1448 1448 1448 1448 1448 1448 1449 1449 1450 1450 1450 1451 1451 1452 1453 1453 1454 1455 1455 1456 1456 1457 1457 1457 1457 1456 1455 1454 1454 1453 1452 1450 1448 1448 1446
1447 1446 1445 1445 1445 1444 1444 1444 1444 1444 1444 1444 1444 1444 1444 1445 1445 1446 1446 1447 1447 1448 1448 1449 1450 1450 1451 1452 1452 1452 1453 1452 1452 1451 1451 1450 1449 1448 1447 1446 1444 1442 1440
1442 1441 1440 1440 1440 1440 1439 1439 1439 1439 1439 1439 1439 1439 1440 1440 1441 1441 1442 1442 1443 1443 1444 1445 1445 1446 1447 1448 1448 1448 1449 1448 1448 1447 1446 1446 1445 1444 1443 1442 1440 1438 1435
1437 1436 1435 1435 1435 1435 1435 1434 1434 1434 1434 1434 1434 1435 1435 1436 1436 1437 1438 1438 1438 1439 1440 1440 1441 1442 1443 1443 1444 1444 1444 1444 1444 1444 1443 1442 1441 1441 1440 1438 1437 1435 1432
1432 1431 1430 1430 1429 1429 1429 1429 1429 1429 1429 1429 1429 1430 1430 1431 1432 1432 1433 1433 1434 1434 1435 1436 1437 1438 1438 1439 1439 1439 1440 1440 1440 1439 1439 1438 1438 1437 1436 1435 1433 1431 1428
1427 1426 1425 1425 1424 1424 1423 1423 1424 1424 1424 1424 1425 1425 1425 1426 1427 1427 1428 1428 1429 1430 1431 1432 1432 1433 1434 1434 1435 1435 1435 1435 1435 1435 1435 1435 1434 1433 1432 1431 1429 1427 1423
1422 1421 1420 1420 1419 1418 1418 1418 1418 1418 1418 1419 1419 1420 1420 1421 1422 1423 1423 1423 1424 1425 1426 1427 1428 1429 1429 1430 1430 1430 1430 1430 1431 1430 1430 1430 1430 1429 1428 1427 1425 1423 1420
1416 1415 1415 1414 1414 1413 1413 1413 1413 1413 1413 1414 1414 1415 1415 1416 1417 1417 1418 1419 1419 1420 1421 1422 1423 1424 1425 1426 1426 1427 1426 1426 1426 1426 1426 1425 1425 1424 1424 1423 1422 1420 1418
1411 1410 1409 1408 1408 1408 1408 1408 1408 1408 1408 1408 1409 1409 1410 1411 1412 1412 1413 1414 1415 1416 1416 1418 1419 1420 1421 1422 1422 1422 1423 1422 1422 1422 1422 1421 1420 1420 1419 1418 1417 1416 1414
1405 1404 1403 1402 1402 1402 1402 1402 1402 1402 1402 1403 1403 1404 1405 1406 1406 1407 1408 1409 1410 1411 1412 1413 1414 1415 1416 1417 1418 1418 1419 1419 1418 1418 1418 1417 1417 1416 1415 1414 1413 1411 1410
1399 1398 1397 1397 1396 1396 1396 1396 1397 1397 1397 1397 1398 1398 1399 1400 1401 1402 1403 1404 1405 1406 1408 1409 1410 1411 1412 1413 1414 1414 1414 1415 1415 1414 1414 1414 1413 1413 1411 1410 1408 1407 1405
1393 1392 1391 1391 1391 1390 1390 1391 1391 1391 1392 1393 1393 1394 1395 1395 1396 1398 1399 1400 1401 1402 1403 1404 1405 1407 1408 1408 1409 1410 1410 1411 1411 1411 1411 1410 1410 1409 1408 1407 1405 1403 1401
1387 1386 1386 1385 1385 1385 1385 1385 1385 1387 1387 1388 1389 1390 1390 1391 1392 1393 1394 1395 1397 1398 1399 1399 1400 1401 1403 1404 1405 1406 1406 1407 1407 1407 1407 1406 1406 1405 1404 1403 1401 1399 1397
1381 1380 1380 1379 1379 1379 1379 1379 1379 1381 1382 1382 1383 1384 1385 1386 1387 1388 1390 1391 1392 1393 1394 1395 1396 1397 1399 1400 1401 1402 1402 1403 1403 1403 1403 1403 1402 1401 1400 1399 1397 1395 1393
1375 1374 1374 1373 1373 1373 1373 1374 1374 1375 1375 1376 1378 1379 1380 1381 1382 1384 1385 1386 1387 1388 1389 1390 1392 1393 1394 1396 1397 1398 1398 1399 1399 1399 1399 1399 1398 1397 1396 1395 1394 1392 1390
1368 1368 1367 1367 1367 1368 1368 1368 1369 1369 1370 1370 1372 1373 1375 1376 1377 1379 1380 1381 1382 1383 1384 1386 1387 1389 1390 1391 1392 1393 1394 1395 1395 1395 1395 1395 1395 1394 1393 1392 1391 1389 1387
1361 1361 1361 1361 1361 1361 1362 1362 1363 1363 1364 1365 1366 1367 1369 1370 1371 1373 1374 1375 1377 1378 1380 1381 1383 1384 1386 1387 1388 1389 1390 1390 1391 1391 1391 1391 1391 1391 1390 1388 1387 1386 1384
1354 1354 1354 1354 1354 1355 1356 1356 1357 1358 1358 1359 1360 1362 1363 1365 1366 1367 1368 1370 1371 1373 1374 1376 1378 1380 1381 1382 1383 1384 1385 1386 1387 1387 1387 1387 1387 1387 1386 1385 1384 1383 1381
1348 1347 1347 1347 1348 1349 1349 1350 1351 1352 1352 1353 1354 1356 1358 1359 1360 1362 1363 1365 1366 1368 1370 1372 1373 1375 1376 1378 1379 1380 1380 1381 1382 1383 1383 1383 1383 1383 1382 1381 1380 1379 1378
1341 1341 1341 1341 1342 1342 1343 1344 1345 1346 1347 1348 1349 1351 1352 1353 1354 1356 1358 1360 1361 1363 1365 1366 1368 1369 1371 1373 1374 1375 1376 1377 1378 1378 1379 1379 1379 1379 1379 1378 1377 1376 1375
1335 1334 1335 1335 1336 1336 1337 1338 1339 1340 1341 1343 1344 1345 1346 1348 1349 1351 1352 1354 1356 1358 1360 1361 1362 1364 1366 1367 1369 1370 1371 1373 1374 1374 1375 1375 1376 1375 1375 1374 1374 1373 1372
1328 1328 1329 1329 1330 1331 1332 1333 1334 1335 1336 1337 1338 1340 1341 1343 1344 1346 1347 1349 1351 1352 1354 1356 1358 1359 1361 1363 1364 1366 1367 1368 1369 1370 1371 1372 1372 1372 1372 1371 1371 1370 1369
1323 1323 1323 1323 1324 1325 1326 1327 1328 1329 1331 1332 1333 1334 1336 1337 1339 1340 1342 1344 1345 1347 1349 1351 1353 1355 1356 1358 1360 1361 1363 1364 1365 1366 1367 1368 1368 1368 1368 1368 1368 1368 1367